Amudaryo

Uzbekistan     38˚46′30″N   65˚51′12″E
temp.,
°C
wind,
m/s
gust,
m/s
humid.,
%
clouds,
%
prec.,
mm/h
press.,
hPa
HPBL,
m
27 november, fri
fri2723:00+5˚w1130100 0.0 102322
02:00+4˚n1235100 0.0 102122
05:00+5˚n2329100 0.0 102023
08:00+7˚nne2325100 0.0 102023
11:00+14˚nnw0116100 0.0 1020221
14:00+16˚ssw3412100 0.0 1018451
17:00+12˚se1217100 0.0 101923
20:00+12˚sw5725100 0.0 1024125
28 november, sat
sat2823:00+8˚wnw61245100 0.0 1029498
02:00+6˚w4683100 1.3 1035487
05:00+6˚wnw4578100 2.3 1039530
08:00+5˚nw2374100 0.0 1041283
11:00+7˚nnw216274 0.0 1041564
14:00+10˚nne22472 0.0 1038992
17:00+8˚nne46462 0.0 1037190
20:00+5˚n474839 0.0 1037134
29 november, sun
sun2923:00+4˚nne345923 0.0 103763
02:00+3˚nne347254 0.0 103537
05:00+3˚nne347664 0.0 103432
08:00+2˚n237674 0.0 103422
11:00+9˚n124146 0.0 1033253
14:00+13˚n11240 0.0 1030498
17:00+10˚nne232717 0.0 102925
20:00+6˚nne234359 0.0 103024
30 november, mon
mon3023:00+5˚ene334829 0.0 102922
02:00+4˚ne33510 0.0 102723
05:00+4˚ne234832 0.0 102622
08:00+4˚ne234696 0.0 102522
11:00+11˚ne122998 0.0 1024207
14:00+14˚nnw2221100 0.0 1022477
17:00+12˚nne3423100 0.0 102176
20:00+9˚wnw1230100 0.0 102123
1 december, tue
tue123:00+9˚nnw2335100 0.0 102228
02:00+8˚s233597 0.0 102324
05:00+9˚sw343486 0.0 1023112
08:00+8˚ssw353988 0.0 1025125
11:00+11˚sw563175 0.0 1026576
14:00+13˚sw56329 0.0 1025846
17:00+10˚wsw463613 0.0 1025178
20:00+6˚wnw234224 0.0 102722